Regional Weather Roundup
Issued by NWS Grand Forks, ND

Home | Current Version | Previous Version | Graphics & Text | Print | Product List | Glossary On
Versions: 1 2 3 4 5 6 7 8 9 10 11 12 13 14 15 16 17 18 19 20 21 22 23 24 25 26 27 28 29 30 31 32 33 34 35 36 37 38 39 40 41 42 43 44 45 46 47 48 49 50
000
ASUS43 KFGF 180310
RWRFGF
PRAIRIE TO PINES  WEATHER ROUNDUP
NATIONAL WEATHER SERVICE EASTERN NORTH DAKOTA/GRAND FORKS ND
900 PM CST WED DEC 17 2014

 **SATELLITE DATA USED TO AUGMENT SKY COVER AT AUTOMATED STATIONS**
 *****  WEATHER ACROSS EASTERN NORTH DAKOTA  *****

CITY           SKY/WX    TMP DP  RH WIND       PRES   REMARKS
GRAND FORKS    PTCLDY     6   3  87 W3        30.31F
GRAND FRKS AFB PTCLDY     5   4  98 W3        30.32R
DEVILS LAKE    PTCLDY     3  -8  60 CALM      30.23S
FARGO          PTCLDY    10   5  80 CALM      30.32R
WAHPETON ARPT  MOCLDY     9   5  85 CALM      30.32S
$$

 ***** WEATHER ACROSS CENTRAL AND WESTERN NORTH DAKOTA  *****

CITY           SKY/WX    TMP DP  RH WIND       PRES   REMARKS
BISMARCK       CLOUDY    16  12  84 SE7       30.19F WCI   6
MINOT          PTCLDY     7   2  80 SE5       30.17S WCI  -2
JAMESTOWN      CLEAR      6   3  87 S5        30.24F WCI  -3
MINOT AFB      PTCLDY     4   3  94 S5        30.17F WCI  -5
GARRISON         N/A     11   8  88 SE6       30.15F WCI   1
WILLISTON      CLOUDY    20  14  77 SE10      30.08F WCI   9
DICKINSON      CLOUDY    18  14  84 S15       30.03F FOG     WCI   4
HETTINGER      CLOUDY    17  15  92 SE10      30.06S FOG     WCI   5
$$

 *****  OTHER AIRPORT OBSERVATIONS IN OUR AREA  *****

CITY           SKY/WX    TMP DP  RH WIND       PRES   REMARKS
WALHALLA         N/A      5   5 100 CALM      30.31S
GRAFTON AIRPOR NOT AVBL
VALLEY CITY AR FAIR       9   9 100 S3        30.27S
CANDO          FAIR       1   0  92 S3        30.25R
CAVALIER APRT  FAIR       7   5  92 CALM      30.31S
GWINNER        CLEAR     10   9  92 MISG      30.29F
SHEYENNE NWR     N/A      4   0  83 CALM      29.95S
ROLLA          FAIR       1   0  92 SW9       30.21S WCI -14
 ***** THE ABOVE OBSERVATIONS ARE NON NWS ARE NOT QUALITY
       CONTROLLED AND MAY MIS-REPORT RAIN FOR SNOW...
$$

  *****  WEATHER ACROSS NORTHERN MINNESOTA  *****

CITY           SKY/WX    TMP DP  RH WIND       PRES   REMARKS
FLAG ISLAND    MOCLDY    10   7  85 CALM      30.30S
WARROAD        PTCLDY     5   1  85 CALM      30.31S
ROSEAU         PTCLDY     9   3  78 CALM      30.31S
HALLOCK        PTCLDY     9   5  85 CALM      30.31S
THF RVR FALLS  PTCLDY    10   7  85 CALM      30.29F
BAUDETTE       PTCLDY     6   2  83 CALM      30.29S
WASKISH        PTCLDY     7   3  85 CALM      30.29S
CROOKSTON      PTCLDY    10   9  92 E3        30.31F
STEPHEN NDAWN    N/A      7   3  85 S1          N/A
GREENBUSH NDAW   N/A      9   7  92 E3          N/A
$$
  *****  WEATHER ACROSS CENTRAL AND WEST MINNESOTA  *****

CITY           SKY/WX    TMP DP  RH WIND       PRES   REMARKS
FOSSTON        PTCLDY     5   1  85 CALM      30.30R
BEMIDJI        PTCLDY     6   3  87 CALM      30.27S
PARK RAPIDS    CLEAR      6   3  87 NW3       30.27R
ELBOW LAKE     FAIR       9   7  92 CALM      30.29S
WADENA         PTCLDY     7   5  92 CALM      30.28R
DETROIT LAKES  PTCLDY    10   9  92 CALM      30.29R
MOORHEAD       CLEAR     12  12 100 CALM      30.32R
FERGUS FALLS   PTCLDY    10   9  92 CALM      30.33F
MORRIS MN      PTCLDY     9   7  92 W3        30.30S
STAPLES        PTCLDY     9   7  92 CALM      30.29R
$$
  *****  WEATHER ELSEWHERE ACROSS MINNESOTA  *****

CITY           SKY/WX    TMP DP  RH WIND       PRES   REMARKS
DULUTH         CLOUDY    15  10  80 NE5       30.25S WCI   8
INTRNTL FALLS  MOCLDY    11   1  64 E5        30.30R WCI   3
ELY            PTCLDY     1   0  92 CALM      30.28F
CLOQUET        PTCLDY     9   5  85 CALM      30.27S
WHEATON        PTCLDY     5   3  92 CALM      30.33S
BRAINERD       PTCLDY     6   4  91 CALM      30.29R
HIBBING        PTCLDY    13   7  77 CALM      30.27S
ALEXANDRIA     PTCLDY    12   7  80 S6        30.29R WCI   3
SAINT CLOUD    CLOUDY    14   9  80 CALM      30.31R
MINNEAPOLIS    CLEAR     16   8  71 CALM      30.33R
$$

  *****  WEATHER ACROSS SOUTH DAKOTA  *****

CITY           SKY/WX    TMP DP  RH WIND       PRES   REMARKS
SIOUX FALLS    PTCLDY     9   7  92 CALM      30.25R
BROOKINGS      NOT AVBL
WATERTOWN      PTCLDY     7   4  87 CALM      30.22F
HURON          PTCLDY     9   6  88 CALM      30.26R
SISSETON         N/A      1  -3  83 CALM      30.28F
ABERDEEN       MOCLDY    11   6  81 CALM      30.26F
MITCHELL       PTCLDY    12   9  87 SE3       30.26S
PIERRE         CLOUDY    18  15  88 SE13      30.17S WCI   5
MOBRIDGE       CLOUDY    18  11  74 SE10      30.16S WCI   6
RAPID CITY     CLOUDY    23  20  88 SE3       30.01F
$$

  *****  SOME WEATHER IN NEARBY STATES *****

CITY           SKY/WX    TMP DP  RH WIND       PRES   REMARKS
GLASGOW MT     CLOUDY    23  19  85 E9        29.98S WCI  13
GREAT FALLS MT CLEAR     28  24  85 S10       29.87R WCI  19
CHEYENNE WY    MOCLDY    27  16  63 W10       29.94S WCI  17
SCOTTSBLUFF NE FOG       20  19  96 E3        30.00S VSB 1/4
OMAHA NE       CLOUDY    28  19  69 SE5       30.28R WCI  23
DES MOINES IA  FAIR      24  16  71 NE3       30.30R
DAVENPORT IA   CLEAR     17  13  84 NW3       30.30S
CHICAGO IL     MOCLDY    25  15  66 N10       30.25F WCI  15
EAU CLAIRE WI  CLOUDY    18  11  74 W3        30.29S
LA CROSSE WI   MOCLDY    19  12  74 NW5       30.32S WCI  12
$$

  *****  SOME NATIONAL WEATHER *****

CITY           SKY/WX    TMP DP  RH WIND       PRES   REMARKS
LA GUARDIA NY  MOCLDY    44  30  57 W16G23    29.89S
RALEIGH NC     MOCLDY    41  35  79 CALM      30.08S
ATLANTA GA     MOCLDY    39  35  86 NW7       30.16F
NEW ORLEANS LA CLOUDY    52  41  66 CALM      30.20S
OKLAHOMA CITY  CLOUDY    38  35  89 SE7       30.14R FOG
ALBUQUERQUE NM MOCLDY    38  35  89 SW5       30.07R
SALT LAKE CITY MOCLDY    34  31  88 CALM      30.03R
LOS ANGELES CA PTCLDY    60  43  53 N3        30.07R
BOISE ID       CLOUDY    39  33  79 SE5       30.00R
SEATTLE WA     CLOUDY    47  43  86 SE5       29.90R
$$

*** WEATHER ACROSS MANITOBA...SASKATCHEWAN AND ONTARIO ***
                ***ONTARIO***

CITY           SKY/WX    TMP DP  RH WIND       PRES   REMARKS
GERALDTON      CLEAR      0  -4  85 NW6       30.30S WCI -12
THUNDER BAY    CLEAR      7   1  78 NW6       30.36S WCI  -3
SIOUX LOOKOUT  NOT AVBL
TORONTO        NOT AVBL
BIG TROUT LK   CLEAR      0  -4  85 W6        30.27S WCI -12
PICKLE LAKE    NOT AVBL
DRYDEN         CLEAR      1   0  92 E3        30.31F
KENORA         PTCLDY     9   0  66 SE10      30.30S WCI  -6
$$
                *** MANITOBA***

CITY           SKY/WX    TMP DP  RH WIND       PRES   REMARKS
BRANDON        CLEAR      1  -4  78 SE3       30.23F
DAUPHIN        CLEAR     -2  -4  92 NW3       30.21F
ISLAND LAKE    CLEAR      0  -8  71 S3        30.27S
PILOT MOUND    NOT AVBL
THE PAS        CLEAR      7   3  85 SE7       30.12F WCI  -5
THOMPSON       PTCLDY    10   7  85 S8        30.13S WCI  -1
WINNIPEG       CLEAR      7   3  85 SE7       30.32F WCI  -5
LYNN LAKE      FLURRIES  14  12  92 SW6       30.01F WCI   5
$$
                ***SASKATCHEWAN***

CITY           SKY/WX    TMP DP  RH WIND       PRES   REMARKS
ESTEVAN        FLURRIES  16  12  86 S9        30.11R WCI   4
KINDERSLEY     PTCLDY    16  12  86 S2        29.88S
LLOYDMINSTER   NOT AVBL
PRINCE ALBERT  FLURRIES  18  14  86 S10       30.02F WCI   6
REGINA         FLURRIES  16  14  93 S16       30.05F WCI   0
YORKTON        FLURRIES   7   3  85 S10       30.12S WCI  -8
N. BATTLEFORD  CLOUDY    18  16  93 SE10      29.97S WCI   6
LA RONGE       CLOUDY    18  16  93 S10       30.00F WCI   6
SASKATOON      NOT AVBL
SWIFT CURRENT  CLOUDY    21  19  93 S18       29.87F FOG     WCI   6
$$
NOTE: THESE ARE AUTOMATED STATIONS WITH LIMITED QUALITY CONTROL
      "FAIR" INDICATES FEW OR NO CLOUDS BELOW 12,000 FEET WITH NO
      SIGNIFICANT WEATHER AND/OR OBSTRUCTIONS TO VISIBILITY.
      SKY/WX - SKY CONDITION AND SIGNIFICANT WEATHER.
      TMP - AIR TEMPERATURE.    DP   - DEWPOINT TEMPERATURE.
      RH  - RELATIVE HUMIDITY.  PRES - PRESSURE.
      HX  - HEAT INDEX.         WCI  - WIND CHILL INDEX.
$


USA.gov is the U.S. government's official web portal to all federal, state and local government web resources and services.